sat.trackr.live / text

‹ back to catalog

ABS-4 (MOBISAT-1)

NORAD 28184 · 2004-007A

PAYLOAD ACTIVE UNKNOWN

§ Identity

Operator
Country
ABS
Launch date
2004-03-13
Launch site
AFETR
Launch vehicle
Mass (kg)
RCS (m²)
10.00

Purposes: comms

External: N2YO · Heavens-Above · Gunter

§ Orbital elements

Epoch: 2026-09-13T02:10:04.510272Z

Period
1,436.06 min
Inclination
6.2575°
Eccentricity
0.0005246
Mean motion
1.00274253 rev/d
Perigee alt
35,763.8 km
Apogee alt
35,808.0 km
Semi-major
42,164.0 km
B*
0.0000e+0
RAAN
70.8960°
Arg perigee
107.9700°
Mean anomaly
266.7406°
Rev number
5,322

§ Raw data

ABS-4 (MOBISAT-1)1 28184U 04007A   26256.09032998  .00000029  00000+0  00000+0 0  99942 28184   6.2575  70.8960 0005246 107.9700 266.7406  1.00274253 53228

JSON: /api/v1/satellites/28184 · /tle

For live sub-satellite position, see the globe view (requires WebGL).

§ Visibility from observer

Set your observer location to see the next 7 days of passes ≥ 10°. The values pass through the URL so the page stays shareable.

No JS? Fill the form by hand. The geolocation button needs JavaScript.